Hourly Weather Namangan

Today, 10 July, Friday

Time Temperature Precipitation Wind Pressure Humidity
00:00 +27°C° 0 mm 3 mps 718 mmHg 39%
01:00 +27°C° 0 mm 3 mps 717 mmHg 41%
02:00 +26°C° 0 mm 3 mps 717 mmHg 43%
03:00 +26°C° 0 mm 3 mps 717 mmHg 44%
04:00 +25°C° 0 mm 2 mps 717 mmHg 44%
05:00 +25°C° 0 mm 2 mps 717 mmHg 45%
06:00 +27°C° 0 mm 2 mps 717 mmHg 39%
07:00 +30°C° 0 mm 2 mps 718 mmHg 34%
08:00 +32°C° 0 mm 2 mps 718 mmHg 28%
09:00 +35°C° 0 mm 2 mps 718 mmHg 25%
10:00 +37°C° 0 mm 2 mps 718 mmHg 21%
11:00 +39°C° 0 mm 2 mps 718 mmHg 17%
12:00 +40°C° 0 mm 3 mps 718 mmHg 15%
13:00 +42°C° 0 mm 4 mps 718 mmHg 13%
14:00 +43°C° 0 mm 5 mps 718 mmHg 11%
15:00 +42°C° 0 mm 5 mps 718 mmHg 13%
16:00 +41°C° 0 mm 6 mps 718 mmHg 14%
17:00 +40°C° 0 mm 6 mps 718 mmHg 16%
18:00 +35°C° 0.1 mm 5 mps 718 mmHg 24%
19:00 +32°C° 0.1 mm 5 mps 718 mmHg 31%
20:00 +28°C° 0.1 mm 4 mps 719 mmHg 38%
21:00 +27°C° 0.3 mm 3 mps 719 mmHg 44%
22:00 +25°C° 0.3 mm 3 mps 719 mmHg 50%
23:00 +24°C° 0.3 mm 2 mps 719 mmHg 55%

Tomorrow, 11 July, Saturday

Time Temperature Precipitation Wind Pressure Humidity
00:00 +24°C° 0.3 mm 2 mps 719 mmHg 57%
01:00 +24°C° 0.3 mm 2 mps 719 mmHg 58%
02:00 +23°C° 0.3 mm 1 mps 719 mmHg 59%
03:00 +23°C° 0.1 mm 2 mps 719 mmHg 59%
04:00 +23°C° 0.1 mm 2 mps 719 mmHg 59%
05:00 +23°C° 0.1 mm 2 mps 719 mmHg 59%
06:00 +25°C° 0.1 mm 3 mps 719 mmHg 52%
07:00 +27°C° 0.1 mm 4 mps 719 mmHg 46%
08:00 +29°C° 0.1 mm 4 mps 719 mmHg 39%
09:00 +32°C° 0 mm 4 mps 719 mmHg 34%
10:00 +34°C° 0 mm 3 mps 719 mmHg 28%
11:00 +36°C° 0 mm 3 mps 719 mmHg 23%
12:00 +38°C° 0 mm 2 mps 718 mmHg 20%
13:00 +39°C° 0 mm 2 mps 718 mmHg 18%
14:00 +40°C° 0 mm 1 mps 718 mmHg 15%
15:00 +40°C° 0 mm 1 mps 718 mmHg 15%
16:00 +40°C° 0 mm 2 mps 718 mmHg 15%
17:00 +40°C° 0 mm 2 mps 718 mmHg 14%
18:00 +38°C° 0 mm 3 mps 718 mmHg 18%
19:00 +36°C° 0 mm 3 mps 718 mmHg 22%
20:00 +33°C° 0 mm 4 mps 718 mmHg 26%
21:00 +32°C° 0 mm 4 mps 718 mmHg 29%
22:00 +30°C° 0 mm 3 mps 718 mmHg 31%
23:00 +29°C° 0 mm 3 mps 718 mmHg 34%

Day after tomorrow, 12 July, Sunday

Time Temperature Precipitation Wind Pressure Humidity
00:00 +28°C° 0 mm 3 mps 717 mmHg 35%
01:00 +27°C° 0 mm 2 mps 717 mmHg 36%
02:00 +26°C° 0 mm 2 mps 717 mmHg 37%
03:00 +26°C° 0 mm 2 mps 716 mmHg 37%
04:00 +26°C° 0 mm 2 mps 716 mmHg 36%
05:00 +25°C° 0 mm 2 mps 716 mmHg 36%
06:00 +28°C° 0 mm 2 mps 716 mmHg 32%
07:00 +30°C° 0 mm 2 mps 716 mmHg 28%
08:00 +34°C° 0 mm 2 mps 716 mmHg 23%
09:00 +36°C° 0 mm 2 mps 716 mmHg 21%
10:00 +37°C° 0 mm 1 mps 716 mmHg 19%
11:00 +40°C° 0 mm 1 mps 716 mmHg 17%
12:00 +41°C° 0 mm 1 mps 716 mmHg 15%
13:00 +42°C° 0 mm 1 mps 716 mmHg 14%
14:00 +43°C° 0 mm 1 mps 715 mmHg 12%
15:00 +43°C° 0 mm 2 mps 715 mmHg 12%
16:00 +43°C° 0 mm 2 mps 715 mmHg 11%
17:00 +43°C° 0 mm 2 mps 715 mmHg 11%
18:00 +40°C° 0 mm 3 mps 715 mmHg 15%
19:00 +38°C° 0 mm 3 mps 715 mmHg 19%
20:00 +35°C° 0 mm 4 mps 715 mmHg 23%
21:00 +34°C° 0 mm 3 mps 715 mmHg 25%
22:00 +33°C° 0 mm 3 mps 715 mmHg 27%
23:00 +31°C° 0 mm 2 mps 715 mmHg 29%

13 July, Monday

Time Temperature Precipitation Wind Pressure Humidity
00:00 +30°C° 0 mm 2 mps 715 mmHg 29%
01:00 +29°C° 0 mm 2 mps 715 mmHg 30%
02:00 +29°C° 0 mm 2 mps 715 mmHg 31%
03:00 +28°C° 0 mm 2 mps 715 mmHg 31%
04:00 +28°C° 0 mm 2 mps 715 mmHg 31%
05:00 +28°C° 0 mm 2 mps 715 mmHg 31%
06:00 +30°C° 0.1 mm 2 mps 715 mmHg 29%
07:00 +31°C° 0.1 mm 2 mps 715 mmHg 27%
08:00 +33°C° 0.1 mm 1 mps 715 mmHg 25%
09:00 +34°C° 0 mm 1 mps 715 mmHg 23%
10:00 +36°C° 0 mm 1 mps 715 mmHg 21%
11:00 +37°C° 0 mm 1 mps 716 mmHg 19%
12:00 +40°C° 0 mm 1 mps 716 mmHg 18%
13:00 +41°C° 0 mm 1 mps 715 mmHg 16%
14:00 +42°C° 0 mm 1 mps 715 mmHg 14%
15:00 +42°C° 0 mm 2 mps 715 mmHg 14%
16:00 +42°C° 0 mm 2 mps 716 mmHg 14%
17:00 +42°C° 0 mm 2 mps 716 mmHg 14%
18:00 +39°C° 0.1 mm 2 mps 716 mmHg 19%
19:00 +36°C° 0.1 mm 3 mps 716 mmHg 24%
20:00 +33°C° 0.1 mm 3 mps 716 mmHg 30%
21:00 +31°C° 0.3 mm 2 mps 716 mmHg 35%
22:00 +30°C° 0.3 mm 2 mps 716 mmHg 39%
23:00 +28°C° 0.3 mm 2 mps 716 mmHg 44%

14 July, Tuesday

Time Temperature Precipitation Wind Pressure Humidity
00:00 +28°C° 0.1 mm 2 mps 716 mmHg 46%
01:00 +27°C° 0.1 mm 3 mps 716 mmHg 49%
02:00 +26°C° 0.1 mm 3 mps 716 mmHg 51%
03:00 +26°C° 0 mm 3 mps 716 mmHg 52%
04:00 +26°C° 0 mm 2 mps 716 mmHg 52%
05:00 +25°C° 0 mm 2 mps 716 mmHg 52%
06:00 +28°C° 0 mm 2 mps 717 mmHg 46%
07:00 +30°C° 0 mm 2 mps 717 mmHg 39%
08:00 +32°C° 0 mm 2 mps 718 mmHg 32%
09:00 +35°C° 0 mm 2 mps 718 mmHg 28%
10:00 +38°C° 0 mm 2 mps 718 mmHg 24%
11:00 +40°C° 0 mm 1 mps 718 mmHg 20%
12:00 +41°C° 0 mm 2 mps 718 mmHg 18%
13:00 +42°C° 0 mm 2 mps 718 mmHg 16%
14:00 +43°C° 0 mm 2 mps 718 mmHg 14%
15:00 +42°C° 0 mm 5 mps 718 mmHg 17%
16:00 +41°C° 0 mm 8 mps 718 mmHg 19%
17:00 +39°C° 0 mm 11 mps 717 mmHg 22%
18:00 +37°C° 0.2 mm 9 mps 718 mmHg 25%
19:00 +34°C° 0.2 mm 7 mps 718 mmHg 29%
20:00 +32°C° 0.2 mm 5 mps 718 mmHg 32%
21:00 +30°C° 0.4 mm 4 mps 718 mmHg 38%
22:00 +29°C° 0.4 mm 3 mps 718 mmHg 43%
23:00 +27°C° 0.4 mm 2 mps 718 mmHg 48%

15 July, Wednesday

Time Temperature Precipitation Wind Pressure Humidity
00:00 +27°C° 0.1 mm 2 mps 718 mmHg 48%
01:00 +27°C° 0.1 mm 2 mps 717 mmHg 49%
02:00 +26°C° 0.1 mm 3 mps 717 mmHg 49%
03:00 +26°C° 0 mm 2 mps 717 mmHg 49%
04:00 +26°C° 0 mm 2 mps 717 mmHg 48%
05:00 +26°C° 0 mm 2 mps 717 mmHg 47%
06:00 +29°C° 0 mm 2 mps 717 mmHg 40%
07:00 +31°C° 0 mm 2 mps 718 mmHg 34%
08:00 +35°C° 0 mm 2 mps 718 mmHg 27%
09:00 +37°C° 0 mm 2 mps 718 mmHg 24%
10:00 +39°C° 0 mm 1 mps 718 mmHg 20%
11:00 +42°C° 0 mm 1 mps 718 mmHg 17%
12:00 +42°C° 0 mm 1 mps 718 mmHg 15%
13:00 +43°C° 0 mm 2 mps 718 mmHg 14%
14:00 +45°C° 0 mm 2 mps 718 mmHg 12%
15:00 +45°C° 0 mm 3 mps 718 mmHg 12%
16:00 +45°C° 0 mm 3 mps 717 mmHg 12%
17:00 +44°C° 0 mm 4 mps 717 mmHg 12%
18:00 +41°C° 0.1 mm 4 mps 717 mmHg 20%
19:00 +36°C° 0.1 mm 5 mps 717 mmHg 27%
20:00 +32°C° 0.1 mm 5 mps 717 mmHg 35%
21:00 +30°C° 0.1 mm 4 mps 717 mmHg 38%
22:00 +28°C° 0.1 mm 3 mps 717 mmHg 42%
23:00 +27°C° 0.1 mm 2 mps 717 mmHg 46%
Show more